Simultaneous Nadir Overpasses (SNOs) Predictions

Prediction of SNOs between FY3D and AQUA Satellite Orbit:

Table of predicted SNOs for the next 14.0 days since TLE Epoch: 2/15/2025
Index Date (FY3D) Time (FY3D) Lat,Lon (FY3D) SZA (FY3D ) Date (AQUA) Time (AQUA) Lat,Lon (AQUA) SZA (AQUA ) Distance(km) Time Diff (sec)
1 02/15/2025 20:40:32 79.58,-145.19 92.42 02/15/2025 20:41:03 79.57,-145.17 92.40 0.43 31
2 02/15/2025 21:31:09 -79.32, 24.35 87.97 02/15/2025 21:30:15 -79.32, 24.29 87.95 1.35 54
3 02/18/2025 07:02:09 -79.56,-120.35 88.48 02/18/2025 07:02:33 -79.55,-120.34 88.48 0.12 24
4 02/18/2025 07:52:46 79.31, 49.07 91.17 02/18/2025 07:51:46 79.32, 48.98 91.20 2.22 60
5 02/20/2025 17:23:47 79.59, -95.98 90.70 02/20/2025 17:24:03 79.58, -95.86 90.68 2.62 16
6 02/20/2025 18:14:24 -79.33, 73.59 89.68 02/20/2025 18:13:15 -79.33, 73.64 89.68 1.24 69
7 02/23/2025 03:45:21 -79.48, -70.39 90.35 02/23/2025 03:45:28 -79.49, -70.52 90.33 2.82 7
8 02/25/2025 14:06:58 79.50, -45.88 88.77 02/25/2025 14:06:54 79.50, -45.88 88.78 0.46 4
9 02/27/2025 23:37:56 79.69, 169.69 88.15 02/27/2025 23:39:04 79.68, 169.82 88.11 2.89 68



Historial Predications of SNOs between FY3D and AQUA
